Weather History for KOWB - December, 2012

Change the Weather History Date:

Wednesday, December 12, 2012

  Actual Average Record
Temperature  
Mean Temperature 36 °F -  
Max Temperature 46 °F 47 °F 67 °F (1948)
Min Temperature 25 °F 30 °F -4 °F (1962)
Degree Days  
Heating Degree Days 30    
Moisture  
Dew Point 26 °F    
Average Humidity 75    
Maximum Humidity 92    
Minimum Humidity 44    
Precipitation  
Precipitation 0.00 in - - ()
Sea Level Pressure  
Sea Level Pressure 30.36 in    
Wind  
Wind Speed 1 mph (SSE)    
Max Wind Speed 7 mph    
Max Gust Speed -    
Visibility 10 miles    
Events      
Averages and records for this station are not official NWS values.
T = Trace of Precipitation, MM = Missing Value Source: NWS Daily Summary

Daily Weather History Graph

Daily Weather History Graph

Search for Another Location

Airport or City:

Trip Planner

Search our weather history database for the weather conditions in past years. The results will help you decide how hot, cold, wet, or windy it might be!

Date:

Astronomy

Dec. 12, 2012 Rise Set
Actual Time 6:54 AM CST 4:30 PM CST
Civil Twilight 6:25 AM CST 4:59 PM CST
Nautical Twilight 5:52 AM CST 5:32 PM CST
Astronomical Twilight 5:20 AM CST 6:04 PM CST
Moon 5:59 AM CST (12/12) 4:06 PM CST (12/12)
Length of Visible Light 10h 34m
Length of Day
9h 35m
Waning Crescent, 1% of the Moon is Illuminated
Dec 12
Waning Crescent
Dec 13
New
Dec 19
First Quarter
Dec 28
Full
Jan 4
Last Quarter

Hourly Weather History & Observations

Time (CST) Temp. Windchill Dew Point Humidity Pressure Visibility Wind Dir Wind Speed Gust Speed Precip Events Conditions
12:56 AM 28.0 °F - 26.1 °F 92% 30.30 in 10.0 mi Calm Calm - N/A   Clear
1:56 AM 28.0 °F - 25.2 °F 89% 30.31 in 10.0 mi Calm Calm - N/A   Clear
2:56 AM 27.1 °F - 25.2 °F 92% 30.32 in 10.0 mi Calm Calm - N/A   Clear
3:56 AM 26.1 °F - 24.1 °F 92% 30.33 in 10.0 mi Calm Calm - N/A   Clear
4:56 AM 26.1 °F - 24.1 °F 92% 30.34 in 10.0 mi Calm Calm - N/A   Clear
5:56 AM 25.2 °F - 23.0 °F 91% 30.35 in 10.0 mi Calm Calm - N/A   Clear
6:56 AM 26.1 °F - 24.1 °F 92% 30.37 in 8.0 mi Calm Calm - N/A   Clear
7:56 AM 28.0 °F - 25.2 °F 89% 30.38 in 9.0 mi Calm Calm - N/A   Clear
8:56 AM 32.9 °F 28.5 °F 28.0 °F 82% 30.40 in 10.0 mi SSE 4.6 mph - N/A   Clear
9:56 AM 38.8 °F 36.5 °F 31.1 °F 74% 30.42 in 10.0 mi SSE 3.5 mph - N/A   Clear
10:56 AM 41.9 °F 37.5 °F 28.0 °F 58% 30.40 in 10.0 mi SSE 6.9 mph - N/A   Clear
11:56 AM 43.9 °F 41.3 °F 28.0 °F 54% 30.38 in 10.0 mi Variable 4.6 mph - N/A   Clear
12:56 PM 45.0 °F 43.5 °F 27.1 °F 50% 30.36 in 10.0 mi Variable 3.5 mph - N/A   Clear
1:56 PM 46.9 °F - 27.1 °F 46% 30.35 in 10.0 mi SE 4.6 mph - N/A   Clear
3:56 PM 45.9 °F - 25.2 °F 44% 30.36 in 10.0 mi Calm Calm - N/A   Clear
4:56 PM 41.9 °F 40.0 °F 27.1 °F 56% 30.36 in 10.0 mi Variable 3.5 mph - N/A   Clear
5:56 PM 41.0 °F - 27.1 °F 58% 30.36 in 10.0 mi Calm Calm - N/A   Clear
7:56 PM 32.9 °F - 27.1 °F 79% 30.39 in 10.0 mi Calm Calm - N/A   Clear
8:56 PM 34.0 °F - 27.1 °F 76% 30.38 in 10.0 mi Calm Calm - N/A   Clear
9:56 PM 32.0 °F - 26.1 °F 79% 30.38 in 10.0 mi Calm Calm - N/A   Clear
10:56 PM 31.1 °F - 27.1 °F 85% 30.38 in 10.0 mi Calm Calm - N/A   Clear
11:56 PM 29.1 °F - 25.2 °F 85% 30.37 in 10.0 mi Calm Calm - N/A   Clear